Weather History for KGLS - January, 2014

Change the Weather History Date:

Friday, January 3, 2014

  Actual Average Record
Temperature  
Mean Temperature 44 °F 55 °F  
Max Temperature 50 °F 62 °F 78 °F (1989)
Min Temperature 37 °F 49 °F 19 °F (1911)
Degree Days  
Heating Degree Days 21 10  
Month to date heating degree days 45 30  
Since 1 July heating degree days 591 390  
Cooling Degree Days 0 0  
Month to date cooling degree days 0 0  
Year to date cooling degree days 0 0  
Moisture  
Dew Point 34 °F    
Average Humidity 66    
Maximum Humidity 76    
Minimum Humidity 55    
Precipitation  
Precipitation 0.00 in 0.14 in 1.85 in (1934)
Month to date precipitation 0.05 0.38  
Year to date precipitation 0.05 0.38  
Snow  
Snow 0.00 in - 0.00 in (2002)
Month to date snowfall 0.0  
Since 1 July snowfall 0.0  
Snow Depth 0.00 in    
Sea Level Pressure  
Sea Level Pressure 30.38 in    
Wind  
Wind Speed 12 mph (ENE)    
Max Wind Speed 21 mph    
Max Gust Speed 24 mph    
Visibility 10 miles    
Events      
T = Trace of Precipitation, MM = Missing Value Source: NWS Daily Summary

Daily Weather History Graph

Daily Weather History Graph

Search for Another Location

Airport or City:

Trip Planner

Search our weather history database for the weather conditions in past years. The results will help you decide how hot, cold, wet, or windy it might be!

Date:

Astronomy

Jan. 03, 2014 Rise Set
Actual Time 7:14 AM CST 5:34 PM CST
Civil Twilight 6:48 AM CST 6:00 PM CST
Nautical Twilight 6:18 AM CST 6:29 PM CST
Astronomical Twilight 5:49 AM CST 6:58 PM CST
Moon 8:54 AM CST (1/3) 8:28 PM CST (1/3)
Length of Visible Light 11h 11m
Length of Day
10h 19m
Waxing Crescent, 8% of the Moon is Illuminated
Jan 3
Waxing Crescent
Jan 7
First Quarter
Jan 15
Full
Jan 23
Last Quarter
Jan 30
New

Hourly Weather History & Observations

Time (CST) Temp. Windchill Dew Point Humidity Pressure Visibility Wind Dir Wind Speed Gust Speed Precip Events Conditions
12:52 AM 43.0 °F 35.7 °F 30.9 °F 62% 30.44 in 10.0 mi North 15.0 mph - N/A   Clear
1:52 AM 42.1 °F 34.2 °F 28.9 °F 60% 30.44 in - NNE 16.1 mph - N/A   Clear
2:52 AM 41.0 °F 32.5 °F 27.0 °F 57% 30.45 in - NNE 17.3 mph - N/A   Clear
3:52 AM 39.9 °F 31.1 °F 28.0 °F 63% 30.45 in - North 17.3 mph - N/A   Clear
4:52 AM 39.9 °F 31.1 °F 28.0 °F 63% 30.44 in - NNE 17.3 mph - N/A   Clear
5:52 AM 39.0 °F 30.3 °F 28.0 °F 65% 30.44 in - NNE 16.1 mph 21.9 mph N/A   Clear
6:52 AM 37.9 °F 29.2 °F 28.0 °F 68% 30.44 in 10.0 mi NNE 15.0 mph - N/A   Clear
7:52 AM 37.0 °F 28.1 °F 28.0 °F 70% 30.45 in 10.0 mi NNE 15.0 mph - N/A   Clear
8:52 AM 41.0 °F 35.2 °F 30.9 °F 67% 30.47 in 10.0 mi NE 9.2 mph - N/A   Clear
9:52 AM 45.0 °F 38.9 °F 35.1 °F 68% 30.48 in 10.0 mi ENE 12.7 mph - N/A   Clear
10:52 AM 46.9 °F - 34.0 °F 61% 30.47 in 10.0 mi ENE 12.7 mph - N/A   Clear
11:52 AM 48.0 °F - 36.0 °F 63% 30.44 in 10.0 mi East 10.4 mph - N/A   Clear
12:52 PM 48.0 °F - 36.0 °F 63% 30.40 in 10.0 mi ENE 10.4 mph - N/A   Clear
1:52 PM 48.9 °F - 36.0 °F 61% 30.37 in 10.0 mi East 8.1 mph - N/A   Clear
2:52 PM 48.9 °F - 35.1 °F 59% 30.35 in 10.0 mi ENE 9.2 mph - N/A   Clear
3:52 PM 48.0 °F - 36.0 °F 63% 30.33 in 10.0 mi East 9.2 mph - N/A   Clear
4:52 PM 46.9 °F - 36.0 °F 66% 30.32 in 10.0 mi East 8.1 mph - N/A   Clear
5:52 PM 45.0 °F 40.6 °F 35.1 °F 68% 30.30 in 10.0 mi East 8.1 mph - N/A   Clear
6:52 PM 45.0 °F 41.8 °F 36.0 °F 71% 30.29 in - ESE 5.8 mph - N/A   Clear
7:52 PM 46.0 °F 41.4 °F 37.0 °F 71% 30.30 in - ESE 9.2 mph - N/A   Clear
8:52 PM 46.0 °F 41.0 °F 37.9 °F 73% 30.29 in - SE 10.4 mph - N/A   Clear
9:52 PM 46.9 °F - 39.0 °F 74% 30.27 in - SE 10.4 mph - N/A   Clear
10:52 PM 48.0 °F - 39.9 °F 74% 30.26 in - SE 13.8 mph - N/A   Clear
11:52 PM 48.9 °F - 41.0 °F 74% 30.24 in - SSE 11.5 mph - N/A   Clear